Voltar ao catálogo

STARLINK-5322

AtivoComunicaçõesVLEO
NORAD 55303·PAYLOAD·🇺🇸 United States

Lançado Jan 19, 2023 de Vandenberg Space Force Base

Loading…

Próximas Passagens (próximas 24 horas)

TLE

AtualizadoSource: CelesTrak SupGP

Época: Sep 14, 2026, 22:14 UTC

1 55303C 23010AL  26257.92687500  .00063242  00000+0  52999-2 0  2570
2 55303  69.9996 287.1224 0003396 267.8933 200.8774 14.98297833    14

Acompanhe STARLINK-5322 em tempo real com AllMySat

Download on the App Store